Weather in Burmantovo

Russia / Sverdlovsk Oblast     61°17′32″N   60°28′37″E
temp.,
°C
wind,
m/s
gust,
m/s
humid.,
%
clouds,
%
prec.,
mm/h
press.,
hPa
HPBL,
m
14 june, mon
mon1423:00+18sw61370100 0.3 1017532
02:00+15ssw3782100 0.0 1016174
05:00+16ssw387899 0.0 1016239
08:00+20ssw4862100 0.0 1015583
11:00+25sw4845100 0.0 10141737
14:00+27wsw5837100 0.0 10132550
17:00+27sw373494 0.0 10122611
20:00+26wsw364391 0.0 1010966
15 june, tue
tue1523:00+16sw2790100 0.9 1011148
02:00+15sw2590100 0.3 101099
05:00+16ssw299090 0.3 1009287
08:00+21w486692 0.0 1009845
11:00+19w277391 0.3 1009667
14:00+25wnw674652 0.3 10101912
17:00+23wnw575022 0.3 10101567
20:00+21nw375377 0.0 10111403
16 june, wed
wed1623:00+14nnw227570 0.0 101214
02:00+12wnw118061 0.0 101311
05:00+12wsw118056 0.0 101314
08:00+19s23555 0.0 1013546
11:00+25sw24413 0.0 10111781
14:00+26wsw233892 0.0 10091861
17:00+23w114937 0.0 100832
20:00+24sw24517 0.0 1006108
17 june, thu
thu1723:00+18s23705 0.3 100546
02:00+15ssw2689100 0.6 1003148
05:00+15sse269544 2.4 1001123
08:00+21sw397379 0.1 999557
11:00+19wsw4778100 0.5 999777
14:00+13wnw71158100 1.4 10031004
17:00+12nw7175699 1.4 10071518
20:00+9nnw71361100 0.0 10101458
18 june, fri
fri1823:00+9n6136099 0.0 10121439
02:00+7nw412621 0.0 1012737
05:00+5wnw210691 0.0 1014280
08:00+13nnw510395 0.0 10141529
11:00+16nnw61032100 0.0 10132925
14:00+16nnw5103197 0.0 10132679
17:00+18nnw6102683 0.0 10123068
20:00+17nnw483613 0.0 10132368